"TOA5","AWS1","CR1000","7964","CR1000.Std.14","CPU:AWS1_114.CR1","64363","TBL110"
"TIMESTAMP","RECORD","Wind_spd_WVc(1)","Wind_spd_WVc(2)","Air_Temp_Avg","Humidity_Avg","SW_upper_Wm2_Avg","Rain_Tot","Press_Avg","Issui_Tot","Depth_cm","SR50A_Raw","Quality","Ground_Temp_Avg(1)","Ground_Temp_Avg(2)","SW_lower_Wm2_Avg","Albedo_Avg","SWC_per(1)","SWC_per(2)","Period(1)","Period(2)"
"TS","RN","","","","","","","","","","","","","","","","","","",""
"","","WVc","WVc","Avg","Avg","Avg","Tot","Avg","Tot","Smp","Smp","Smp","Avg","Avg","Avg","Avg","Smp","Smp","Smp","Smp"
"2016-04-18 00:00:00",231613,0.101,160.2,8.63,71.4,0,0,861.3807,0,-4.788,3.177,189,8.74,7.963,1.800158,0,51.49,59.91,33.66,35.66
"2016-04-18 00:10:00",231614,0.09,220.5,8.54,72.68,0,0,861.3701,0,-6.391,3.192,197,8.76,7.973,1.023286,0,51.49,59.91,33.66,35.66
"2016-04-18 00:20:00",231615,0,0,8.96,72.44,0,0,861.3575,0,-5.126,3.18,203,8.75,7.98,1.076372,0,51.49,59.85,33.66,35.64
"2016-04-18 00:30:00",231616,0.15,176.6,8.32,75.39,0,0,861.3596,0,-6.387,3.2,190,8.68,7.988,0.3183697,0,51.49,59.85,33.66,35.64
"2016-04-18 00:40:00",231617,0.228,180.6,7.583,80.5,0,0,861.3407,0,-6.389,3.2,195,8.67,7.994,0.04169261,0,51.49,59.85,33.66,35.64
"2016-04-18 00:50:00",231618,0.089,190.1,7.823,80.3,0,0,861.2943,0,-5.648,3.189,190,8.6,7.996,0.1364495,0,51.49,59.85,33.66,35.64
"2016-04-18 01:00:00",231619,0.245,192.6,8.09,78,0,0,861.1089,0,-6.104,3.194,189,8.64,7.991,0.2918459,0,51.49,59.85,33.66,35.64
"2016-04-18 01:10:00",231620,0.277,179.9,7.819,78.42,0,0,861.0879,0,-5.398,3.189,195,8.57,7.994,0.1364488,0,51.49,59.85,33.66,35.64
"2016-04-18 01:20:00",231621,0.197,143.3,8.16,76.75,0,0,861.071,0,-5.29,3.183,187,8.52,7.997,0.51548,0,51.49,59.85,33.66,35.64
"2016-04-18 01:30:00",231622,0.303,142.6,8.66,73.45,0,0,860.8857,0,-5.514,3.183,192,8.5,7.999,0.8452404,0,51.49,59.85,33.66,35.64
"2016-04-18 01:40:00",231623,0.336,127.6,9.22,70.23,0,0,860.8351,0,-5.029,3.177,231,8.43,7.998,0.9248344,0,51.49,59.85,33.66,35.64
"2016-04-18 01:50:00",231624,0.406,141.8,9.2,70.29,0,0,860.8351,0,-5.742,3.184,191,8.44,8,0.3752472,0,51.49,59.85,33.66,35.64
"2016-04-18 02:00:00",231625,0.557,152.5,9.17,70.24,0,0,860.8351,0,-5.642,3.184,190,8.47,8,0.1933098,0,51.49,59.85,33.66,35.64
"2016-04-18 02:10:00",231626,0.647,146.5,8.9,71.22,0,0,860.8331,0,-4.676,3.176,191,8.35,7.998,0.01895148,0,51.49,59.85,33.66,35.64
"2016-04-18 02:20:00",231627,0.642,145.9,8.93,70.95,0,0,860.654,0,-5.639,3.185,189,8.35,7.995,0.09475695,0,51.49,59.85,33.66,35.64
"2016-04-18 02:30:00",231628,0.808,145.8,9.16,69.06,0,0,860.6624,0,-4.966,3.177,186,8.28,7.986,0.04927226,0,51.49,59.85,33.66,35.64
"2016-04-18 02:40:00",231629,0.7,153.2,9.14,68.24,0,0,860.8351,0,-6.337,3.193,208,8.23,7.973,0.05305915,0,51.49,59.85,33.66,35.64
"2016-04-18 02:50:00",231630,0.638,134.7,9.04,67.88,0,0,860.8225,0,-4.885,3.178,187,8.22,7.965,0.003789852,0,51.49,59.85,33.66,35.64
"2016-04-18 03:00:00",231631,0.575,146.8,8.95,67.78,0,0,860.8351,0,-5.713,3.184,188,8.17,7.956,0,0,51.49,59.85,33.66,35.64
"2016-04-18 03:10:00",231632,0.526,144.4,8.94,67.27,0,0,860.8689,0,-5.407,3.182,213,8.12,7.949,0.02652738,0,51.49,59.85,33.66,35.64
"2016-04-18 03:20:00",231633,0.88,157.9,9.25,65.39,0,0,860.8289,0,-5.885,3.185,187,8.11,7.946,0.1629512,0,51.49,59.85,33.66,35.64
"2016-04-18 03:30:00",231634,0.783,160,9.19,65.39,0,0,860.6877,0,-5.607,3.183,209,8.05,7.949,0.007579095,0,51.49,59.85,33.66,35.64
"2016-04-18 03:40:00",231635,0.682,151.2,9.06,65.41,0,0,860.8351,0,-4.439,3.172,196,8.03,7.959,0,0,51.49,59.79,33.66,35.63
"2016-04-18 03:50:00",231636,0.862,152.8,9.36,63.54,0,0,860.9931,0,-4.692,3.174,214,8.03,7.973,0.01894772,0,51.49,59.79,33.66,35.63
"2016-04-18 04:00:00",231637,0.83,150.7,9.44,62.51,0,0,861.0057,0,-6.162,3.187,187,8.06,7.944,0,0,51.49,59.79,33.66,35.63
"2016-04-18 04:10:00",231638,0.803,152.5,8.97,64.3,0,0,860.8351,0,-4.543,3.174,190,8.02,7.932,0,0,51.49,59.79,33.66,35.63
"2016-04-18 04:20:00",231639,0.843,150.4,9.1,62.7,0,0,860.8984,0,-4.491,3.173,181,7.945,7.882,0,0,51.49,59.79,33.66,35.63
"2016-04-18 04:30:00",231640,0.908,153.3,9.08,62.07,0,0,861.0879,0,-6.932,3.198,203,7.944,7.859,0,0,51.49,59.79,33.66,35.63
"2016-04-18 04:40:00",231641,1.179,159.9,8.78,61.85,0,0,861.2964,0,-4.999,3.178,205,7.851,7.858,0,0,51.49,59.79,33.66,35.63
"2016-04-18 04:50:00",231642,0.901,151.7,8.9,59.17,0,0,861.2922,0,-4.796,3.176,195,7.858,7.858,0,0,51.49,59.79,33.66,35.63
"2016-04-18 05:00:00",231643,1.054,159.8,9.18,55.46,0,0,861.1532,0,-4.483,3.17,193,7.862,7.858,0,0,51.49,59.79,33.66,35.63
"2016-04-18 05:10:00",231644,0.948,158.9,9.54,51.95,0,0,861.3239,0,-6.316,3.189,195,7.9,7.858,0.01894772,0,51.49,59.79,33.66,35.63
"2016-04-18 05:20:00",231645,0.754,155.7,9.39,50.39,0.5581008,0,861.2059,0,-6.165,3.188,210,7.789,7.862,0.2349518,0.318,51.49,59.79,33.66,35.63
"2016-04-18 05:30:00",231646,0.711,152,9.16,49.84,5.266584,0,861.0141,0,-4.645,3.175,192,7.771,7.89,0.7541193,0.143,51.49,59.79,33.66,35.63
"2016-04-18 05:40:00",231647,0.9,156.9,9.39,46.52,10.58426,0,861.0837,0,-6.111,3.186,198,7.736,7.903,1.724243,0.161,51.49,59.79,33.66,35.63
"2016-04-18 05:50:00",231648,0.489,152,9.33,46.64,20.85803,0,861.0837,0,-6.266,3.189,192,7.68,7.927,2.66405,0.127,51.49,59.79,33.66,35.63
"2016-04-18 06:00:00",231649,0.357,104.9,8.73,49.62,29.48894,0,861.1532,0,-5.915,3.188,193,7.676,7.929,3.380274,0.114,51.49,59.79,33.66,35.63
"2016-04-18 06:10:00",231650,0.634,104.4,8.72,49.09,36.05252,0,861.269,0,-4.845,3.176,214,7.685,7.887,6.199695,0.162,51.49,59.79,33.66,35.63
"2016-04-18 06:20:00",231651,0.358,149.2,8.91,50.95,66.55155,0,861.2416,0,-6.759,3.199,196,7.679,7.887,16.54136,0.262,51.49,59.79,33.66,35.63
"2016-04-18 06:30:00",231652,0.136,119,8.45,54.66,55.57033,0,861.3133,0,-5.28,3.181,205,7.621,7.898,14.82091,0.282,51.49,59.79,33.66,35.63
"2016-04-18 06:40:00",231653,0.352,121.2,9.24,51.62,73.46886,0,861.2648,0,-4.279,3.168,224,7.571,7.887,17.12874,0.267,51.49,59.73,33.66,35.62
"2016-04-18 06:50:00",231654,0.475,128.8,9.76,49.78,103.17,0,861.1279,0,-5.446,3.178,210,7.568,7.859,20.20585,0.211,51.49,59.79,33.66,35.63
"2016-04-18 07:00:00",231655,0.806,132.5,10.55,43.29,233.4905,0,861.0373,0,-5.428,3.172,194,7.566,7.84,31.55933,0.138,51.49,59.79,33.66,35.63
"2016-04-18 07:10:00",231656,0.933,145.5,11.27,37.4,222.8944,0,860.9363,0,-4.348,3.159,209,7.556,7.855,32.35513,0.148,51.49,59.73,33.66,35.62
"2016-04-18 07:20:00",231657,0.455,124.6,11.13,38.39,101.7473,0,861.0879,0,-4.992,3.167,239,7.578,7.802,12.72908,0.124,51.49,59.73,33.66,35.62
"2016-04-18 07:30:00",231658,0.331,121.4,10.81,39.86,66.16638,0,861.1258,0,-5.023,3.169,217,7.59,7.759,7.044763,0.106,51.49,59.73,33.66,35.62
"2016-04-18 07:40:00",231659,0.324,20.73,10.56,41.78,100.9021,0,861.3211,0,-5.485,3.175,200,7.525,7.77,12.03558,0.119,51.49,59.73,33.66,35.62
"2016-04-18 07:50:00",231660,0.239,353.2,10.2,47.3,122.3273,0,861.4982,0,-4.472,3.168,213,7.485,7.764,14.88498,0.121,51.49,59.73,33.66,35.62
"2016-04-18 08:00:00",231661,0.426,328.6,9.41,55.64,112.7264,0,861.5748,0,-4.477,3.172,211,7.467,7.758,13.85383,0.122,51.49,59.73,33.66,35.62
"2016-04-18 08:10:00",231662,0.323,42.24,9.24,58.16,162.102,0,861.4836,0,-6.016,3.185,184,7.441,7.747,21.35975,0.132,51.49,59.73,33.66,35.62
"2016-04-18 08:20:00",231663,0.447,124.4,9.94,52.61,142.0919,0,861.5056,0,-4.542,3.167,204,7.438,7.726,18.85368,0.132,51.49,59.73,33.66,35.62
"2016-04-18 08:30:00",231664,0.581,139.5,10.18,45.14,106.9839,0,861.4896,0,-4.412,3.166,194,7.436,7.716,14.10556,0.132,51.49,59.73,33.66,35.62
"2016-04-18 08:40:00",231665,0.465,132.2,10.15,43.67,117.3207,0,861.3839,0,-4.196,3.163,195,7.442,7.689,15.83249,0.135,51.49,59.73,33.66,35.62
"2016-04-18 08:50:00",231666,0.26,146.3,10.38,45.68,113.0909,0,861.3295,0,-4.292,3.164,190,7.454,7.595,14.88457,0.132,51.49,59.73,33.66,35.62
"2016-04-18 09:00:00",231667,0.737,139.2,10.25,42.29,156.2225,0,861.1617,0,-4.036,3.161,194,7.503,7.523,21.87766,0.139,51.49,59.73,33.66,35.62
"2016-04-18 09:10:00",231668,0.503,144.1,10.49,38.54,121.3589,0,861.1985,0,-4.462,3.164,194,7.496,7.524,16.73672,0.138,51.49,59.73,33.66,35.62
"2016-04-18 09:20:00",231669,0.35,0.356,10.26,54.1,248.2533,0,861.2536,0,-4.631,3.17,185,7.468,7.541,35.27282,0.143,51.55,59.73,33.68,35.62
"2016-04-18 09:30:00",231670,0.438,334.8,9.49,62.57,198.0452,0,861.3922,0,-5.276,3.18,189,7.465,7.549,26.93862,0.136,51.49,59.73,33.66,35.62
"2016-04-18 09:40:00",231671,0.418,343.7,8.82,66.77,217.5078,0,861.4089,0,-4.898,3.178,180,7.448,7.555,29.45384,0.135,51.44,59.73,33.65,35.62
"2016-04-18 09:50:00",231672,0.474,346.6,8.66,68.44,193.8389,0,861.5128,0,-4.85,3.179,185,7.441,7.555,26.33219,0.136,51.49,59.73,33.66,35.62
"2016-04-18 10:00:00",231673,0.29,342.8,8.7,72.98,236.9666,0,861.819,0,-4.846,3.177,181,7.529,7.565,33.52983,0.141,51.44,59.73,33.65,35.62
"2016-04-18 10:10:00",231674,0.27,89.5,9.21,72.85,230.2991,0,861.7335,0,-4.458,3.171,180,7.553,7.554,31.5675,0.136,51.44,59.73,33.65,35.62
"2016-04-18 10:20:00",231675,0.242,55.19,9.26,70.18,176.9951,0,861.569,0,-4.717,3.175,185,7.538,7.556,22.78255,0.128,51.49,59.73,33.66,35.62
"2016-04-18 10:30:00",231676,0.331,338.5,9.28,71.11,253.0517,0,861.7521,0,-4.967,3.176,183,7.51,7.572,34.83297,0.137,51.44,59.73,33.65,35.62
"2016-04-18 10:40:00",231677,0.301,356.8,9.17,70.75,253.9985,0,861.7289,0,-4.439,3.173,195,7.597,7.56,34.1814,0.132,51.44,59.67,33.65,35.6
"2016-04-18 10:50:00",231678,0.304,294.7,8.92,71.28,142.6443,0,861.7184,0,-4.568,3.175,182,7.671,7.491,16.77817,0.118,51.49,59.73,33.66,35.62
"2016-04-18 11:00:00",231679,0.381,293,8.63,71.51,131.105,0,861.7942,0,-5.031,3.182,180,7.646,7.455,15.81974,0.121,51.49,59.73,33.66,35.62
"2016-04-18 11:10:00",231680,0.214,295.3,8.24,69.8,92.04343,0,861.8489,0,-5.136,3.185,180,7.692,7.467,10.17525,0.109,51.44,59.73,33.65,35.62
"2016-04-18 11:20:00",231681,0.211,224.6,8.14,69.96,173.6712,0,861.9542,0,-4.952,3.18,180,7.705,7.486,23.04015,0.128,51.44,59.67,33.65,35.6
"2016-04-18 11:30:00",231682,0.396,16.14,8.38,67.96,155.7552,0,861.6005,0,-5.234,3.184,184,7.726,7.481,19.64209,0.125,51.44,59.67,33.65,35.6
"2016-04-18 11:40:00",231683,0.11,276.1,8.26,68.02,151.6534,0,861.9606,0,-5.161,3.185,188,7.718,7.503,18.96399,0.125,51.44,59.67,33.65,35.6
"2016-04-18 11:50:00",231684,0.155,328.2,8.11,67.64,90.05539,0,862.0469,0,-5.137,3.185,182,7.762,7.507,9.356982,0.102,51.44,59.67,33.65,35.6
"2016-04-18 12:00:00",231685,0.05,287.4,8.01,67.32,78.10745,0,861.7563,0,-5.138,3.186,187,7.814,7.507,7.864411,0.1,51.44,59.73,33.65,35.62
"2016-04-18 12:10:00",231686,0.087,76.62,7.977,66.55,92.56599,0,861.7606,0,-5.618,3.19,192,7.832,7.491,10.30405,0.111,51.44,59.67,33.65,35.6
"2016-04-18 12:20:00",231687,0.223,0.104,7.654,69.25,61.25621,0,861.7437,0,-5.115,3.187,192,7.892,7.458,5.883155,0.096,51.44,59.67,33.65,35.6
"2016-04-18 12:30:00",231688,0.446,338.7,7.425,71.36,66.30883,0,861.59,0,-4.232,3.18,229,7.89,7.45,6.864313,0.103,51.44,59.73,33.65,35.62
"2016-04-18 12:40:00",231689,0.386,352.2,7.291,72.65,62.03807,0,861.5939,0,-4.461,3.183,196,7.908,7.432,6.648383,0.107,51.44,59.67,33.65,35.6
"2016-04-18 12:50:00",231690,0.168,353.1,7.282,73.23,61.13441,0,861.545,0,-4.51,3.183,195,7.931,7.421,6.905983,0.113,51.44,59.67,33.65,35.6
"2016-04-18 13:00:00",231691,0.279,312.3,7.217,72.3,73.59102,0,861.7072,0,-4.342,3.182,190,7.916,7.427,8.682893,0.118,51.38,59.67,33.64,35.6
"2016-04-18 13:10:00",231692,0.404,263.4,7.176,71.54,80.52377,0,861.6551,0,-4.443,3.183,191,7.916,7.434,9.743861,0.121,51.44,59.67,33.65,35.6
"2016-04-18 13:20:00",231693,0.488,256.9,7.517,68.8,93.56983,0,861.5486,0,-4.444,3.181,190,7.927,7.437,11.99436,0.128,51.38,59.67,33.64,35.6
"2016-04-18 13:30:00",231694,0.911,301.1,7.528,60.64,85.44001,0,861.7717,0,-4.911,3.186,193,7.928,7.449,10.74083,0.126,51.44,59.67,33.65,35.6
"2016-04-18 13:40:00",231695,0.556,327.8,7.547,61.46,91.77352,0,862.0923,0.5,-5.343,3.19,187,7.935,7.458,12.80231,0.14,51.38,59.67,33.64,35.6
"2016-04-18 13:50:00",231696,0.541,302.5,7.412,58.9,91.8452,0,862.3222,3.5,-5.282,3.19,188,7.95,7.472,12.96592,0.141,51.44,59.67,33.65,35.6
"2016-04-18 14:00:00",231697,0.499,259.9,7.365,55.48,107.4354,0,862.309,0,-4.683,3.184,189,7.969,7.494,15.62329,0.145,51.38,59.67,33.64,35.6
"2016-04-18 14:10:00",231698,0.381,224.2,7.552,53.15,132.0426,0,862.3316,0,-5.117,3.188,183,7.964,7.505,19.47777,0.147,51.38,59.67,33.64,35.6
"2016-04-18 14:20:00",231699,1.452,312.8,7.399,46.77,128.2089,0,862.3514,0,-4.715,3.185,187,7.963,7.509,19.0461,0.148,51.38,59.67,33.64,35.6
"2016-04-18 14:30:00",231700,0.87,298.6,7.308,46.74,129.2314,0,862.3516,0,-4.412,3.182,190,7.974,7.511,19.45926,0.15,51.38,59.67,33.64,35.6
"2016-04-18 14:40:00",231701,0.805,270.3,7.326,47.28,105.1665,0,862.3516,0,-5.121,3.189,186,7.975,7.509,15.431,0.146,51.38,59.67,33.64,35.6
"2016-04-18 14:50:00",231702,0.465,206.1,7.361,48.33,79.88694,0,862.3558,0,-3.853,3.176,208,8,7.504,11.18672,0.14,51.38,59.67,33.64,35.6
"2016-04-18 15:00:00",231703,0.621,179.4,7.392,47.44,95.443,0,862.4528,0,-5.526,3.193,184,8.02,7.493,13.74467,0.144,51.38,59.67,33.64,35.6
"2016-04-18 15:10:00",231704,0.406,159.4,7.396,48.4,96.50025,0,862.398,0,-4.918,3.187,196,8.03,7.499,14.01372,0.145,51.38,59.61,33.64,35.59
"2016-04-18 15:20:00",231705,0.772,171.5,7.195,49.93,68.6031,0,862.3854,0,-5.071,3.189,193,8.03,7.505,9.466273,0.138,51.33,59.61,33.62,35.59
"2016-04-18 15:30:00",231706,0.594,188.7,7.155,50.13,62.77056,0,862.3875,0,-4.818,3.187,192,8.03,7.497,8.799314,0.14,51.33,59.61,33.62,35.59
"2016-04-18 15:40:00",231707,0.707,304.1,7.115,45.68,53.6012,0,862.4211,0,-5.325,3.192,178,8.03,7.482,7.586661,0.141,51.38,59.61,33.64,35.59
"2016-04-18 15:50:00",231708,0.923,282.6,7.079,44.82,47.65503,0,862.457,0,-5.657,3.196,177,8.04,7.495,6.817434,0.143,51.38,59.61,33.64,35.59
"2016-04-18 16:00:00",231709,0.62,319.5,6.982,45.38,62.36251,0,862.3411,0,-5.58,3.195,178,8.03,7.497,9.523224,0.152,51.38,59.61,33.64,35.59
"2016-04-18 16:10:00",231710,0.413,264.7,7.115,47,72.75526,0,862.3516,0,-5.839,3.197,173,8.04,7.494,11.06952,0.152,51.33,59.61,33.62,35.59
"2016-04-18 16:20:00",231711,0.448,179.6,7.127,48.07,50.59806,0,862.3284,0,-5.592,3.195,189,8.06,7.513,7.208206,0.141,51.33,59.61,33.62,35.59
"2016-04-18 16:30:00",231712,0.437,215.6,6.931,49.42,40.48604,0,862.3411,0,-5.525,3.195,189,8.06,7.518,5.590144,0.138,51.33,59.61,33.62,35.59
"2016-04-18 16:40:00",231713,0.173,226,6.908,50.67,53.8218,0,862.3475,0,-5.453,3.194,186,8.09,7.521,8.027496,0.149,51.33,59.61,33.62,35.59
"2016-04-18 16:50:00",231714,0.591,292.8,6.858,50.2,47.87518,0,862.4275,0,-5.205,3.193,178,8.1,7.52,6.958798,0.145,51.33,59.61,33.62,35.59
"2016-04-18 17:00:00",231715,0.462,252.3,6.85,50.18,58.87446,0,862.3643,0,-5,3.19,182,8.09,7.535,9.138229,0.155,51.33,59.67,33.62,35.6
"2016-04-18 17:10:00",231716,0.429,268.4,6.885,51.34,39.34134,0,862.3959,0,-5.051,3.191,182,8.07,7.556,5.734605,0.143,51.33,59.61,33.62,35.59
"2016-04-18 17:20:00",231717,0.485,293.5,6.814,51.27,31.34984,0,862.2063,0,-4.802,3.189,179,8.04,7.557,4.586198,0.146,51.27,59.61,33.61,35.59
"2016-04-18 17:30:00",231718,0.528,305.4,6.648,52.61,16.59324,0,862.6022,0,-5.061,3.192,187,8.08,7.56,2.202189,0.132,51.33,59.61,33.62,35.59
"2016-04-18 17:40:00",231719,0.961,297.4,6.556,53.2,12.16346,0,862.6444,0,-4.968,3.192,184,8.1,7.575,1.690574,0.139,51.33,59.56,33.62,35.58
"2016-04-18 17:50:00",231720,0.4,3,6.451,54.99,7.619105,0,862.7855,0,-4.439,3.187,196,8.11,7.587,1.11824,0.147,51.33,59.61,33.62,35.59
"2016-04-18 18:00:00",231721,0.35,289.9,6.309,56.17,9.761865,0,862.6022,0,-4.419,3.188,182,8.11,7.592,1.52765,0.157,51.33,59.61,33.62,35.59
"2016-04-18 18:10:00",231722,0.572,293.7,6.184,57.21,5.661444,0,862.7794,0,-4.902,3.193,187,8.13,7.597,0.8680859,0.144,51.33,59.56,33.62,35.58
"2016-04-18 18:20:00",231723,1.045,305.9,6.085,58.38,0.9475161,0,862.9835,0,-4.776,3.192,182,8.19,7.6,0.02653563,0.013,51.33,59.61,33.62,35.59
"2016-04-18 18:30:00",231724,0.967,279.8,5.93,61.71,0.01572647,0,863.3069,0,-4.779,3.194,192,8.19,7.601,0,0,51.27,59.61,33.61,35.59
"2016-04-18 18:40:00",231725,1.2,310,5.753,59.29,0,0,863.0071,0,-4.626,3.192,193,8.11,7.602,0,0,51.33,59.61,33.62,35.59
"2016-04-18 18:50:00",231726,1.083,286.4,5.703,54.22,0,0,863.1941,0,-5.184,3.199,181,8.04,7.602,0,0,51.33,59.61,33.62,35.59
"2016-04-18 19:00:00",231727,1.154,302.1,5.57,51.36,0,0,863.1513,0,-5.033,3.198,187,8.04,7.602,0,0,51.33,59.61,33.62,35.59
"2016-04-18 19:10:00",231728,0.847,290.9,5.544,48.03,0,0,863.3132,0,-4.58,3.194,192,8.07,7.6,0,0,51.27,59.61,33.61,35.59
"2016-04-18 19:20:00",231729,0.654,266.8,5.469,51.54,0,0,863.2585,0,-5.135,3.2,184,8.03,7.592,0,0,51.27,59.61,33.61,35.59
"2016-04-18 19:30:00",231730,1.047,288.7,5.434,54.35,0,0,863.4487,0,-4.883,3.198,174,7.955,7.584,0,0,51.27,59.61,33.61,35.59
"2016-04-18 19:40:00",231731,1.006,289.1,5.349,56.43,0,0,863.4841,0,-5.034,3.199,185,7.96,7.532,0,0,51.27,59.61,33.61,35.59
"2016-04-18 19:50:00",231732,1.004,301.2,5.327,55.37,0,0,863.4529,0,-4.378,3.193,197,8.01,7.554,0,0,51.27,59.56,33.61,35.58
"2016-04-18 20:00:00",231733,0.548,232,5.202,54.48,0,0,863.4383,0,-4.631,3.197,196,7.992,7.564,0,0,51.27,59.56,33.61,35.58
"2016-04-18 20:10:00",231734,0.114,214.5,4.993,58.43,0,0,863.4657,0,-5.641,3.208,174,7.894,7.52,0,0,51.27,59.56,33.61,35.58
"2016-04-18 20:20:00",231735,0.114,11.78,4.925,57.07,0,0,863.9818,0,-5.287,3.204,197,7.865,7.519,0,0,51.27,59.56,33.61,35.58
"2016-04-18 20:30:00",231736,0.215,203.6,4.808,58.17,0,0,864.123,0,-5.389,3.206,186,7.866,7.525,0,0,51.27,59.56,33.61,35.58
"2016-04-18 20:40:00",231737,0.379,254.8,4.808,56.25,0,0,864.338,0,-4.884,3.201,193,7.834,7.534,0.02653586,0,51.33,59.56,33.62,35.58
"2016-04-18 20:50:00",231738,0.864,285.3,5.045,42.68,0,0,864.5507,0,-4.883,3.199,196,7.777,7.534,0.2274502,0,51.27,59.56,33.61,35.58
"2016-04-18 21:00:00",231739,0.185,305.8,4.963,45.91,0,0,864.6645,0,-4.631,3.198,192,7.826,7.546,0.02653586,0,51.33,59.56,33.62,35.58
"2016-04-18 21:10:00",231740,0.317,237.1,4.616,49.1,0,0,864.5802,0,-4.179,3.195,184,7.796,7.575,0,0,51.33,59.56,33.62,35.58
"2016-04-18 21:20:00",231741,0.226,295.2,4.7,44.36,0,0,864.6856,0,-5.288,3.205,187,7.743,7.592,0.04928087,0,51.33,59.56,33.62,35.58
"2016-04-18 21:30:00",231742,0.186,196,4.429,51.6,0,0,864.5802,0,-4.507,3.201,171,7.738,7.597,0.03032669,0,51.27,59.56,33.61,35.58
"2016-04-18 21:40:00",231743,0.418,183.2,3.973,55.97,0,0,864.6708,0,-4.23,3.199,194,7.763,7.581,0,0,51.27,59.56,33.61,35.58
"2016-04-18 21:50:00",231744,0.226,291.3,4.127,53.85,0,0,864.7741,0,-4.002,3.194,179,7.69,7.532,0.06823505,0,51.27,59.56,33.61,35.58
"2016-04-18 22:00:00",231745,0.168,97.8,4.348,52.6,0,0,864.694,0,-4.23,3.199,180,7.651,7.515,0.231241,0,51.27,59.56,33.61,35.58
"2016-04-18 22:10:00",231746,0.233,293.3,4.185,54.36,0,0,864.4918,0,-4.204,3.196,172,7.652,7.515,0.09477091,0,51.27,59.56,33.61,35.58
"2016-04-18 22:20:00",231747,0.372,321.4,4.331,53.9,0,0,864.4201,0,-4.128,3.196,176,7.602,7.515,0.07581673,0,51.27,59.56,33.61,35.58
"2016-04-18 22:30:00",231748,0.24,303.2,4.281,51.44,0,0,864.576,0,-4.381,3.199,193,7.533,7.515,0.01516335,0,51.27,59.5,33.61,35.56
"2016-04-18 22:40:00",231749,0.23,26.47,4.165,47.39,0,0,864.7088,0,-4.481,3.199,179,7.556,7.515,0.09856175,0,51.27,59.5,33.61,35.56
"2016-04-18 22:50:00",231750,0.302,337.5,4.571,37.97,0,0,864.5212,0,-5.035,3.203,190,7.515,7.515,0.2956852,0,51.27,59.5,33.61,35.56
"2016-04-18 23:00:00",231751,0.358,45.4,4.433,41.31,0,0,864.4369,0,-4.683,3.202,187,7.496,7.527,0.003790837,0,51.27,59.5,33.61,35.56
"2016-04-18 23:10:00",231752,0.534,11.81,4.298,40.18,0,0,864.6013,0,-4.738,3.203,182,7.486,7.553,0,0,51.27,59.5,33.61,35.56
"2016-04-18 23:20:00",231753,0.63,14.31,4.322,38.19,0,0,864.5339,0,-5.248,3.207,190,7.511,7.567,0.07581995,0,51.27,59.5,33.61,35.56
"2016-04-18 23:30:00",231754,0.688,28.06,4.292,38.81,0,0,864.4769,0,-4.699,3.202,182,7.482,7.548,0,0,51.33,59.5,33.62,35.56
"2016-04-18 23:40:00",231755,0.984,30.42,4.162,39.47,0,0,864.5823,0,-4.927,3.205,187,7.412,7.525,0,0,51.27,59.5,33.61,35.56
"2016-04-18 23:50:00",231756,1.101,35.68,4.172,39.84,0,0,864.5107,0,-5.107,3.207,187,7.447,7.523,0,0,51.27,59.5,33.61,35.56
